sat.trackr.live / text

‹ back to catalog

STARLINK-30922

NORAD 58414 · 2023-180N

PAYLOAD ACTIVE UNKNOWN

§ Identity

Operator
Country
US
Launch date
2023-11-22
Launch site
AFETR
Launch vehicle
Mass (kg)
RCS (m²)

Purposes: comms

External: N2YO · Heavens-Above · Gunter

§ Orbital elements

Epoch: 2026-09-20T16:06:44.142336Z

Period
94.27 min
Inclination
43.0041°
Eccentricity
0.0000937
Mean motion
15.27581920 rev/d
Perigee alt
482.4 km
Apogee alt
483.7 km
Semi-major
6,861.2 km
B*
-3.0216e-5
RAAN
31.5797°
Arg perigee
271.7802°
Mean anomaly
88.2942°
Rev number
15,744

§ Raw data

STARLINK-309221 58414U 23180N   26263.67134424 -.00001093  00000+0 -30216-4 0  99962 58414  43.0041  31.5797 0000937 271.7802  88.2942 15.27581920157448

JSON: /api/v1/satellites/58414 · /tle

For live sub-satellite position, see the globe view (requires WebGL).

§ Visibility from observer

Set your observer location to see the next 7 days of passes ≥ 10°. The values pass through the URL so the page stays shareable.

No JS? Fill the form by hand. The geolocation button needs JavaScript.